Weather History for Rolla, MO

Change the Weather History Date:

Wednesday, February 27, 2013

  Actual Average Record
Temperature  
Mean Temperature 31 °F 39 °F  
Max Temperature 32 °F 50 °F 76 °F (1976)
Min Temperature 29 °F 29 °F 12 °F (1976)
Degree Days  
Heating Degree Days 34 26  
Month to date heating degree days 822 797  
Since 1 July heating degree days 3550 3765  
Cooling Degree Days 0 0  
Month to date cooling degree days 0 0  
Year to date cooling degree days 0 0  
Moisture  
Dew Point 27 °F    
Average Humidity 93    
Maximum Humidity 100    
Minimum Humidity 85    
Precipitation  
Precipitation T in 0.07 in 1.57 in (1958)
Month to date precipitation 2.24 1.85  
Year to date precipitation 4.71 4.02  
Sea Level Pressure  
Sea Level Pressure 29.83 in    
Wind  
Wind Speed 14 mph (West)    
Max Wind Speed 22 mph    
Max Gust Speed 28 mph    
Visibility 3 miles    
Events Snow    
T = Trace of Precipitation, MM = Missing Value Source: NWS Daily Summary

Daily Weather History Graph

Daily Weather History Graph

Search for Another Location

Airport:

Trip Planner

Search our weather history database for the weather conditions in past years. The results will help you decide how hot, cold, wet, or windy it might be!

Date:

Astronomy

Feb. 27, 2013 Rise Set
Actual Time 6:41 AM CST 5:58 PM CST
Civil Twilight 6:14 AM CST 6:25 PM CST
Nautical Twilight 5:44 AM CST 6:55 PM CST
Astronomical Twilight 5:13 AM CST 7:26 PM CST
Moon 8:17 PM CST (2/27) 7:19 AM CST (2/27)
Length of Visible Light 12h 10m
Length of Day
11h 17m
Waning Gibbous, 96% of the Moon is Illuminated
Feb 27
Waning Gibbous
Mar 4
Last Quarter
Mar 11
New
Mar 19
First Quarter
Mar 27
Full

Hourly Weather History & Observations

Time (CST) Temp. Windchill Dew Point Humidity Pressure Visibility Wind Dir Wind Speed Gust Speed Precip Events Conditions
12:18 AM 30.2 °F 19.8 °F 28.4 °F 93% 29.71 in 5.0 mi West 13.8 mph 19.6 mph N/A   Overcast
12:53 AM 30.9 °F 20.2 °F 28.9 °F 92% 29.74 in 5.0 mi West 15.0 mph 21.9 mph N/A   Overcast
1:53 AM 30.9 °F 20.2 °F 28.9 °F 92% 29.74 in 5.0 mi West 15.0 mph - N/A   Overcast
2:53 AM 30.9 °F 21.2 °F 28.9 °F 92% 29.74 in 6.0 mi WNW 12.7 mph - N/A   Overcast
3:50 AM 30.2 °F 20.8 °F 28.4 °F 93% 29.73 in 6.0 mi West 11.5 mph 18.4 mph 0.00 in   Overcast
3:53 AM 30.9 °F 21.7 °F 28.0 °F 89% 29.76 in 6.0 mi West 11.5 mph - 0.00 in   Overcast
4:04 AM 30.2 °F 20.8 °F 28.4 °F 93% 29.74 in 6.0 mi West 11.5 mph 19.6 mph N/A   Overcast
4:53 AM 30.9 °F 22.2 °F 28.0 °F 89% 29.78 in 7.0 mi West 10.4 mph - N/A   Overcast
5:27 AM 30.2 °F 21.3 °F 28.4 °F 93% 29.76 in 2.0 mi West 10.4 mph - N/A Snow Light Snow
5:39 AM 30.2 °F 21.3 °F 28.4 °F 93% 29.76 in 1.8 mi West 10.4 mph - 0.00 in Snow Light Snow
5:53 AM 30.0 °F 20.5 °F 28.9 °F 96% 29.79 in 2.0 mi West 11.5 mph - 0.00 in Snow Light Snow
6:12 AM 30.2 °F 20.8 °F 28.4 °F 93% 29.77 in 3.0 mi West 11.5 mph - 0.00 in Snow Light Snow
6:53 AM 30.0 °F 19.1 °F 28.0 °F 92% 29.80 in 2.0 mi West 15.0 mph - 0.00 in Snow Light Snow
7:03 AM 30.2 °F 19.8 °F 28.4 °F 93% 29.77 in 1.8 mi West 13.8 mph - N/A Snow Light Snow
7:20 AM 30.2 °F 20.8 °F 28.4 °F 93% 29.77 in 2.0 mi West 11.5 mph - 0.00 in Snow Light Snow
7:53 AM 30.0 °F 20.5 °F 28.0 °F 92% 29.81 in 3.0 mi West 11.5 mph 20.7 mph 0.00 in   Overcast
8:09 AM 30.2 °F 19.3 °F 28.4 °F 93% 29.79 in 2.5 mi West 15.0 mph - N/A   Overcast
8:32 AM 30.2 °F 20.8 °F 28.4 °F 93% 29.79 in 3.0 mi West 11.5 mph - N/A   Overcast
8:53 AM 30.2 °F 19.8 °F 28.4 °F 93% 29.80 in 3.0 mi West 13.8 mph - N/A   Overcast
9:03 AM 30.2 °F 18.5 °F 28.4 °F 93% 29.79 in 2.0 mi West 17.3 mph 20.7 mph 0.00 in Snow Light Snow
9:11 AM 30.2 °F 18.9 °F 28.4 °F 93% 29.80 in 1.8 mi West 16.1 mph - 0.00 in Snow Light Snow
9:53 AM 30.0 °F 19.1 °F 27.0 °F 88% 29.83 in 1.8 mi West 15.0 mph - 0.00 in Snow Light Snow
10:08 AM 30.2 °F 18.5 °F 26.6 °F 86% 29.80 in 2.0 mi West 17.3 mph 21.9 mph 0.00 in Snow Light Snow
10:35 AM 30.2 °F 18.9 °F 26.6 °F 86% 29.80 in 1.5 mi West 16.1 mph 23.0 mph 0.00 in Snow Light Snow
10:53 AM 30.9 °F 19.4 °F 28.0 °F 89% 29.84 in 1.2 mi West 17.3 mph 23.0 mph 0.00 in Snow Light Snow
11:11 AM 30.2 °F 18.9 °F 26.6 °F 86% 29.81 in 2.0 mi West 16.1 mph - 0.00 in Snow Light Snow
11:15 AM 30.2 °F 20.2 °F 26.6 °F 86% 29.81 in 1.8 mi West 12.7 mph 23.0 mph 0.00 in Snow Light Snow
11:53 AM 30.9 °F 19.8 °F 27.0 °F 85% 29.85 in 2.5 mi West 16.1 mph - 0.00 in Snow Light Snow
12:13 PM 30.2 °F 18.5 °F 26.6 °F 86% 29.81 in 1.8 mi West 17.3 mph 24.2 mph 0.00 in Snow Light Snow
12:26 PM 30.2 °F 19.3 °F 26.6 °F 86% 29.81 in 2.5 mi West 15.0 mph 23.0 mph 0.00 in Snow Light Snow
12:34 PM 30.2 °F 18.5 °F 26.6 °F 86% 29.81 in 3.0 mi West 17.3 mph 26.5 mph 0.00 in Snow Light Snow
12:44 PM 30.2 °F 18.5 °F 26.6 °F 86% 29.81 in 2.0 mi West 17.3 mph - 0.00 in Snow Light Snow
12:51 PM 30.2 °F 18.5 °F 26.6 °F 86% 29.81 in 1.8 mi West 17.3 mph 25.3 mph 0.00 in Snow Light Snow
12:53 PM 30.9 °F 18.1 °F 26.1 °F 82% 29.84 in 1.8 mi West 21.9 mph 27.6 mph 0.00 in Snow Light Snow
1:00 PM 30.2 °F 19.8 °F 26.6 °F 86% 29.81 in 2.0 mi West 13.8 mph 27.6 mph 0.00 in Snow Light Snow
1:26 PM 30.2 °F 19.8 °F 26.6 °F 86% 29.81 in 1.8 mi West 13.8 mph 21.9 mph 0.00 in Snow Light Snow
1:44 PM 30.2 °F 20.8 °F 26.6 °F 86% 29.81 in 2.5 mi West 11.5 mph 21.9 mph 0.00 in Snow Light Snow
1:53 PM 30.9 °F 20.7 °F 27.0 °F 85% 29.85 in 2.5 mi West 13.8 mph 20.7 mph 0.00 in Snow Light Snow
2:35 PM 30.2 °F 19.3 °F 26.6 °F 86% 29.83 in 1.8 mi West 15.0 mph 21.9 mph 0.00 in Snow Light Snow
2:53 PM 30.9 °F 18.4 °F 26.1 °F 82% 29.86 in 3.0 mi West 20.7 mph - 0.00 in Snow Light Snow
2:59 PM 30.2 °F 19.3 °F 26.6 °F 86% 29.83 in 2.5 mi West 15.0 mph 27.6 mph 0.00 in Snow Light Snow
3:11 PM 30.2 °F 19.3 °F 26.6 °F 86% 29.83 in 1.8 mi West 15.0 mph 21.9 mph 0.00 in Snow Light Snow
3:25 PM 30.2 °F 19.8 °F 26.6 °F 86% 29.83 in 1.5 mi West 13.8 mph 18.4 mph 0.00 in Snow Light Snow
3:37 PM 30.2 °F 19.3 °F 26.6 °F 86% 29.84 in 2.0 mi West 15.0 mph 23.0 mph 0.00 in Snow Light Snow
3:48 PM 30.2 °F 19.8 °F 26.6 °F 86% 29.84 in 1.2 mi West 13.8 mph - 0.00 in Snow Light Snow
3:53 PM 30.9 °F 20.2 °F 27.0 °F 85% 29.87 in 1.2 mi West 15.0 mph - 0.00 in Snow Light Snow
4:49 PM 30.2 °F 18.1 °F 26.6 °F 86% 29.86 in 1.5 mi West 18.4 mph 24.2 mph 0.00 in Snow Light Snow
4:53 PM 30.9 °F 20.2 °F 27.0 °F 85% 29.89 in 1.2 mi WNW 15.0 mph 24.2 mph 0.00 in Snow Light Snow
5:27 PM 30.2 °F 20.2 °F 26.6 °F 86% 29.87 in 1.5 mi WNW 12.7 mph - 0.00 in Snow Light Snow
5:53 PM 30.0 °F 20.5 °F 27.0 °F 88% 29.91 in 0.8 mi West 11.5 mph - 0.00 in Snow Light Snow
6:01 PM 30.2 °F 21.9 °F 26.6 °F 86% 29.88 in 1.0 mi WNW 9.2 mph - 0.00 in Snow Light Snow
6:11 PM 30.2 °F 20.2 °F 26.6 °F 86% 29.89 in 3.0 mi West 12.7 mph 21.9 mph 0.00 in Snow Light Snow
6:37 PM 30.2 °F 20.8 °F 26.6 °F 86% 29.89 in 5.0 mi WNW 11.5 mph 23.0 mph 0.00 in   Overcast
6:44 PM 30.2 °F 19.3 °F 26.6 °F 86% 29.90 in 5.0 mi WNW 15.0 mph - 0.00 in Snow Light Snow
6:53 PM 30.0 °F 20.5 °F 26.1 °F 85% 29.94 in 5.0 mi WNW 11.5 mph - 0.00 in   Overcast
7:49 PM 28.4 °F 19.1 °F 24.8 °F 86% 29.91 in 2.5 mi WNW 10.4 mph - 0.00 in Snow Light Snow
7:53 PM 28.9 °F 17.3 °F 25.0 °F 85% 29.94 in 2.0 mi WNW 16.1 mph 19.6 mph 0.00 in Snow Light Snow
7:59 PM 28.4 °F 18.5 °F 24.8 °F 86% 29.91 in 1.8 mi West 11.5 mph - 0.00 in Snow Light Snow
8:23 PM 28.4 °F 17.5 °F 24.8 °F 86% 29.91 in 3.0 mi WNW 13.8 mph - 0.00 in Snow Light Snow
8:53 PM 28.9 °F 18.2 °F 25.0 °F 85% 29.95 in 4.0 mi West 13.8 mph 18.4 mph 0.00 in Snow Light Snow
9:49 PM 28.4 °F 17.0 °F 24.8 °F 86% 29.91 in 7.0 mi West 15.0 mph - 0.00 in   Overcast
9:53 PM 28.9 °F 18.2 °F 25.0 °F 85% 29.94 in 7.0 mi WNW 13.8 mph - 0.00 in   Overcast
10:00 PM 28.4 °F 19.7 °F 24.8 °F 86% 29.91 in 7.0 mi WNW 9.2 mph 18.4 mph N/A   Overcast
10:53 PM 28.9 °F 18.2 °F 24.1 °F 82% 29.95 in 8.0 mi WNW 13.8 mph - N/A   Overcast
11:53 PM 28.4 °F 19.1 °F 24.8 °F 86% 29.91 in 8.0 mi WNW 10.4 mph - N/A   Overcast